This demonstration page uses our WeatherBlox Daily Observations layout. Learn more.

Left ArrowRight Arrow

Hourly Observations for January 3, 2018

Temp ( °F °C ) Dew Point ( °F °C ) Humidity (%) Winds ( mph kmh ) Pressure ( in mb ) Visibility ( mi km ) Precip ( " mm )
12:53 am 00:53 Clear 22 -5.6 14 -10 71 71 NW 17 28 30.30 1026 10 16 0.00 0.00
1:53 am 01:53 Clear 23 -5 15 -9.4 72 72 N 15 24 30.31 1026 10 16 0.00 0.00
2:53 am 02:53 Clear 20 -6.7 13 -10.6 74 74 NNW 12 19 30.33 1027 10 16 0.00 0.00
3:28 am 03:28 Mostly Cloudy 19 -7 12 -11 73 73 NNW 14 22 30.42 1030 10 16 0.00 0.00
3:53 am 03:53 Cloudy 22 -5.6 15 -9.4 75 75 NNW 15 24 30.35 1028 10 16 0.00 0.00
4:53 am 04:53 Cloudy 22 -5.6 15 -9.4 75 75 N 23 37 30.36 1028 10 16 0.00 0.00
5:53 am 05:53 Cloudy 22 -5.6 15 -9.4 75 75 N 16 26 30.37 1029 10 16 0.00 0.00
6:53 am 06:53 Cloudy 22 -5.6 15 -9.4 75 75 N 12 19 30.37 1029 10 16 0.00 0.00
7:53 am 07:53 Cloudy 21 -6.1 14 -10 74 74 NNW 13 20 30.40 1029 10 16 0.00 0.00
8:53 am 08:53 Cloudy 22 -5.6 14 -10 71 71 N 12 19 30.41 1030 10 16 0.00 0.00
9:53 am 09:53 Cloudy 22 -5.6 15 -9.4 75 75 NNW 13 20 30.43 1031 10 16 0.00 0.00
10:53 am 10:53 Cloudy 23 -5 15 -9.4 72 72 N 12 19 30.44 1031 10 16 0.00 0.00
11:53 am 11:53 Cloudy 24 -4.4 16 -8.9 71 71 N 8 13 30.43 1031 10 16 0.00 0.00
12:53 pm 12:53 Cloudy 24 -4.4 15 -9.4 68 68 NNW 6 9 30.40 1029 10 16 0.00 0.00
1:53 pm 13:53 Mostly Cloudy 24 -4.4 15 -9.4 68 68 NNW 8 13 30.37 1029 10 16 0.00 0.00
2:26 pm 14:26 Partly Cloudy 25 -3.9 16 -8.9 69 69 N 6 9 30.39 1029 10 16 0.00 0.00
2:53 pm 14:53 Sunny 25 -3.9 15 -9.4 66 66 NW 7 11 30.35 1028 10 16 0.00 0.00
3:53 pm 15:53 Sunny 25 -3.9 16 -8.9 69 69 NW 6 9 30.36 1028 10 16 0.00 0.00
4:53 pm 16:53 Sunny 24 -4.4 15 -9.4 68 68 NW 3 6 30.36 1028 10 16 0.00 0.00
5:53 pm 17:53 Clear 19 -7.2 13 -10.6 77 77 Calm 30.35 1028 10 16 0.00 0.00
6:53 pm 18:53 Clear 17 -8.3 13 -10.6 84 84 Calm 30.36 1028 10 16 0.00 0.00
7:53 pm 19:53 Clear 16 -8.9 12 -11.1 84 84 SW 3 6 30.36 1028 10 16 0.00 0.00
8:53 pm 20:53 Clear 14 -10 11 -11.7 88 88 WSW 5 7 30.37 1028 10 16 0.00 0.00
9:53 pm 21:53 Clear 13 -10.6 10 -12.2 88 88 Calm 30.37 1029 10 16 0.00 0.00
10:53 pm 22:53 Clear 12 -11.1 9 -12.8 87 87 Calm 30.38 1029 10 16 0.00 0.00
11:53 pm 23:53 Clear 12 -11.1 9 -12.8 87 87 Calm 30.39 1029 7 11 0.00 0.00

Powered by AerisWeather